When you browse on this site, cookies collect data to enhance your experience and personalize the content and advertising you see.
Visit our Privacy Policy to learn more. By continuing to use the site, you agree to this use of cookies and data.
  • In Hungary
  • List of Countries
  • For 7 days
  • Water Temperature
  • Weather Map
  • News
  • Weather Widgets
  • user-avatar
    Login

    Hourly Weather Nevyrivka

    Today, 11 December, Wednesday

    Time Temperature Precipitation Wind Pressure Humidity
    00:00 +1°C° 0 mm 3 mps 746 mmHg 92%
    01:00 +1°C° 0 mm 3 mps 746 mmHg 91%
    02:00 +1°C° 0 mm 3 mps 746 mmHg 90%
    03:00 0°C° 0 mm 3 mps 746 mmHg 91%
    04:00 -1°C° 0 mm 2 mps 746 mmHg 91%
    05:00 -1°C° 0 mm 2 mps 746 mmHg 92%
    06:00 -2°C° 0 mm 2 mps 747 mmHg 92%
    07:00 -2°C° 0 mm 2 mps 747 mmHg 92%
    08:00 -2°C° 0 mm 2 mps 747 mmHg 92%
    09:00 +1°C° 0 mm 1 mps 747 mmHg 88%
    10:00 +2°C° 0 mm 1 mps 747 mmHg 84%
    11:00 +3°C° 0 mm 1 mps 747 mmHg 80%
    12:00 +3°C° 0 mm 1 mps 747 mmHg 78%
    13:00 +2°C° 0 mm 0 mps 747 mmHg 76%
    14:00 +3°C° 0 mm 0 mps 747 mmHg 74%
    15:00 +3°C° 0 mm 1 mps 747 mmHg 78%
    16:00 +2°C° 0 mm 1 mps 747 mmHg 82%
    17:00 -1°C° 0 mm 2 mps 746 mmHg 87%
    18:00 -1°C° 0 mm 2 mps 746 mmHg 87%
    19:00 -1°C° 0 mm 3 mps 746 mmHg 87%
    20:00 -1°C° 0 mm 3 mps 747 mmHg 88%
    21:00 -1°C° 0 mm 3 mps 746 mmHg 89%
    22:00 -1°C° 0 mm 4 mps 746 mmHg 90%
    23:00 -1°C° 0 mm 4 mps 746 mmHg 92%

    Tomorrow, 12 December, Thursday

    Time Temperature Precipitation Wind Pressure Humidity
    00:00 0°C° 0 mm 4 mps 746 mmHg 92%
    01:00 0°C° 0 mm 5 mps 745 mmHg 93%
    02:00 0°C° 0 mm 5 mps 745 mmHg 94%
    03:00 +1°C° 0 mm 5 mps 745 mmHg 94%
    04:00 +1°C° 0 mm 5 mps 744 mmHg 95%
    05:00 +1°C° 0 mm 5 mps 744 mmHg 95%
    06:00 +1°C° 0 mm 5 mps 744 mmHg 94%
    07:00 +1°C° 0 mm 5 mps 744 mmHg 93%
    08:00 +1°C° 0 mm 5 mps 744 mmHg 92%
    09:00 +1°C° 0 mm 5 mps 744 mmHg 88%
    10:00 +1°C° 0 mm 5 mps 744 mmHg 84%
    11:00 +2°C° 0 mm 5 mps 744 mmHg 81%
    12:00 +2°C° 0 mm 5 mps 743 mmHg 78%
    13:00 +3°C° 0 mm 5 mps 743 mmHg 75%
    14:00 +3°C° 0 mm 5 mps 743 mmHg 72%
    15:00 +3°C° 0 mm 4 mps 742 mmHg 76%
    16:00 +1°C° 0 mm 4 mps 742 mmHg 80%
    17:00 0°C° 0 mm 4 mps 742 mmHg 84%
    18:00 0°C° 0 mm 4 mps 742 mmHg 87%
    19:00 0°C° 0 mm 5 mps 742 mmHg 89%
    20:00 0°C° 0 mm 5 mps 742 mmHg 92%
    21:00 0°C° 0 mm 5 mps 741 mmHg 91%
    22:00 -1°C° 0 mm 6 mps 741 mmHg 91%
    23:00 -1°C° 0 mm 6 mps 741 mmHg 90%

    Day after tomorrow, 13 December, Friday

    Time Temperature Precipitation Wind Pressure Humidity
    00:00 -1°C° 0 mm 6 mps 740 mmHg 89%
    01:00 -1°C° 0 mm 6 mps 740 mmHg 88%
    02:00 -1°C° 0 mm 6 mps 740 mmHg 87%
    03:00 -1°C° 0 mm 6 mps 739 mmHg 87%
    04:00 -1°C° 0 mm 6 mps 739 mmHg 86%
    05:00 -1°C° 0 mm 6 mps 738 mmHg 86%
    06:00 -1°C° 0 mm 6 mps 738 mmHg 85%
    07:00 -2°C° 0 mm 7 mps 738 mmHg 85%
    08:00 -2°C° 0 mm 7 mps 738 mmHg 84%
    09:00 -2°C° 0 mm 7 mps 738 mmHg 85%
    10:00 -2°C° 0 mm 7 mps 737 mmHg 86%
    11:00 -2°C° 0 mm 7 mps 737 mmHg 86%
    12:00 -2°C° 0 mm 7 mps 737 mmHg 84%
    13:00 -2°C° 0 mm 7 mps 736 mmHg 83%
    14:00 -2°C° 0 mm 7 mps 736 mmHg 81%
    15:00 -2°C° 0 mm 7 mps 736 mmHg 81%
    16:00 -2°C° 0 mm 7 mps 736 mmHg 82%
    17:00 -2°C° 0 mm 7 mps 735 mmHg 82%
    18:00 -2°C° 0 mm 7 mps 735 mmHg 82%
    19:00 -1°C° 0 mm 7 mps 736 mmHg 82%
    20:00 -1°C° 0 mm 7 mps 736 mmHg 82%
    21:00 -1°C° 0 mm 7 mps 736 mmHg 82%
    22:00 -1°C° 0 mm 7 mps 735 mmHg 82%
    23:00 -1°C° 0 mm 7 mps 735 mmHg 81%

    14 December, Saturday

    Time Temperature Precipitation Wind Pressure Humidity
    00:00 -1°C° 0 mm 7 mps 736 mmHg 82%
    01:00 -1°C° 0 mm 7 mps 736 mmHg 83%
    02:00 -1°C° 0 mm 6 mps 736 mmHg 84%
    03:00 -1°C° 0 mm 6 mps 736 mmHg 84%
    04:00 -1°C° 0 mm 6 mps 736 mmHg 84%
    05:00 -1°C° 0 mm 6 mps 735 mmHg 84%
    06:00 -1°C° 0 mm 6 mps 736 mmHg 84%
    07:00 -1°C° 0 mm 6 mps 736 mmHg 85%
    08:00 -1°C° 0 mm 6 mps 736 mmHg 86%
    09:00 -1°C° 0 mm 6 mps 736 mmHg 86%
    10:00 -1°C° 0 mm 6 mps 736 mmHg 86%
    11:00 +1°C° 0 mm 6 mps 736 mmHg 86%
    12:00 +1°C° 0 mm 6 mps 735 mmHg 86%
    13:00 +2°C° 0 mm 6 mps 735 mmHg 85%
    14:00 +3°C° 0 mm 6 mps 735 mmHg 84%
    15:00 +3°C° 0 mm 6 mps 735 mmHg 86%
    16:00 +3°C° 0 mm 6 mps 735 mmHg 88%
    17:00 +3°C° 0 mm 6 mps 735 mmHg 90%
    18:00 +3°C° 0 mm 5 mps 735 mmHg 90%
    19:00 +3°C° 0 mm 5 mps 735 mmHg 91%
    20:00 +3°C° 0 mm 5 mps 735 mmHg 91%
    21:00 +5°C° 0 mm 5 mps 735 mmHg 92%
    22:00 +5°C° 0 mm 5 mps 735 mmHg 93%
    23:00 +5°C° 0 mm 5 mps 735 mmHg 94%

    15 December, Sunday

    Time Temperature Precipitation Wind Pressure Humidity
    00:00 +5°C° 0.2 mm 4 mps 736 mmHg 93%
    01:00 +5°C° 0.2 mm 4 mps 736 mmHg 92%
    02:00 +5°C° 0.2 mm 4 mps 736 mmHg 92%
    03:00 +5°C° 0 mm 4 mps 736 mmHg 89%
    04:00 +4°C° 0 mm 4 mps 737 mmHg 87%
    05:00 +4°C° 0 mm 4 mps 737 mmHg 84%
    06:00 +3°C° 0 mm 4 mps 738 mmHg 85%
    07:00 +1°C° 0 mm 4 mps 738 mmHg 85%
    08:00 +1°C° 0 mm 4 mps 739 mmHg 86%
    09:00 +3°C° 0 mm 4 mps 739 mmHg 79%
    10:00 +3°C° 0 mm 5 mps 740 mmHg 73%
    11:00 +3°C° 0 mm 6 mps 740 mmHg 66%
    12:00 +4°C° 0 mm 6 mps 741 mmHg 65%
    13:00 +4°C° 0 mm 6 mps 741 mmHg 63%
    14:00 +5°C° 0 mm 7 mps 741 mmHg 62%
    15:00 +4°C° 0 mm 6 mps 742 mmHg 65%
    16:00 +3°C° 0 mm 5 mps 742 mmHg 68%
    17:00 +3°C° 0 mm 4 mps 743 mmHg 71%
    18:00 +1°C° 0 mm 4 mps 743 mmHg 74%
    19:00 +1°C° 0 mm 4 mps 744 mmHg 76%
    20:00 +2°C° 0 mm 3 mps 744 mmHg 78%
    21:00 +2°C° 0 mm 3 mps 744 mmHg 80%
    22:00 +2°C° 0 mm 3 mps 744 mmHg 81%
    23:00 +2°C° 0 mm 3 mps 744 mmHg 83%

    16 December, Monday

    Time Temperature Precipitation Wind Pressure Humidity
    00:00 +3°C° 0 mm 4 mps 744 mmHg 78%
    01:00 +4°C° 0 mm 4 mps 744 mmHg 74%
    02:00 +3°C° 0 mm 5 mps 744 mmHg 69%
    03:00 +3°C° 0 mm 5 mps 744 mmHg 69%
    04:00 +3°C° 0 mm 5 mps 744 mmHg 69%
    05:00 +3°C° 0 mm 5 mps 744 mmHg 69%
    06:00 +3°C° 0 mm 5 mps 744 mmHg 72%
    07:00 +4°C° 0 mm 4 mps 744 mmHg 76%
    08:00 +4°C° 0 mm 4 mps 745 mmHg 79%
    09:00 +4°C° 0 mm 4 mps 746 mmHg 77%
    10:00 +5°C° 0 mm 4 mps 746 mmHg 74%
    11:00 +5°C° 0 mm 5 mps 747 mmHg 72%
    12:00 +5°C° 0 mm 4 mps 747 mmHg 68%
    13:00 +6°C° 0 mm 4 mps 747 mmHg 64%
    14:00 +6°C° 0 mm 4 mps 747 mmHg 60%
    15:00 +5°C° 0 mm 3 mps 747 mmHg 65%
    16:00 +4°C° 0 mm 3 mps 747 mmHg 69%
    17:00 +4°C° 0 mm 2 mps 748 mmHg 73%
    18:00 +4°C° 0 mm 2 mps 748 mmHg 76%
    19:00 +4°C° 0 mm 2 mps 748 mmHg 78%
    20:00 +4°C° 0 mm 2 mps 748 mmHg 81%
    21:00 +3°C° 0 mm 3 mps 748 mmHg 82%
    22:00 +3°C° 0 mm 3 mps 748 mmHg 83%
    23:00 +3°C° 0 mm 3 mps 748 mmHg 84%
    Show more